www.pogodaiklimat.ru

Погода и климат >> Архив погоды >> Мьянма >> Янгон


ПОГОДА у Янгоне

  • Прогноз погоды у Янгоне
  • Монитор погоды у Янгоне

АРХИВ ПОГОДЫ у Янгоне

Время (UTC), дата Ветер
(напр.,м/с)
 
Видим.   Явления Облачность Т
(С)
Тd
(С)
f
(%)
Тe
(С)
Тes
(С)
Комфортность P
(гПа)
Po
(гПа)
Тmin
(С)
Tmax
(С)
R
(мм)
R24
(мм)
S
(см)
00 14.07 ЮЗ 3 6000 м сильн. дождь 10/8 300 м
[Frnb Ac As]
+23.0 +23.0 100 +32 +32 очень
душно
1009.7 1008.0 +21.3 15
03 14.07 СВ 2 7000 м слаб. морось 10/8 300 м
[Frnb Ac As]
+25.5 +25.5 100 +37 +38 очень
душно
1009.3 1007.6
06 14.07 ЮВ 2 7000 м {морось} 9/6 300 м
[Cb calv Ac und]
+29.0 +26.6 87 +45 +49 опасность
перегрева
1009.7 1008.0
12 14.07 СВ 1 5000 м слаб. морось {дождь} 10/6 300 м
[Frnb As op]
+26.0 +26.0 100 +39 +39 очень
душно
1009.0 1007.3 +29.5 27
15 14.07 Ю 1 4000 м в посл. час дождь {морось} 10/6 300 м
[Frnb Ac As]
+25.5 +25.5 100 +37 +37 очень
душно
1010.0 1008.3
00 15.07 ЮЗ 1 6000 м в посл. час дождь 10/6 300 м
[Frnb Ac und]
+24.0 +24.0 100 +33 +33 очень
душно
1008.0 1006.3 +23.3 12
03 15.07 ЮЗ 1 6000 м 10/6 300 м
[Frnb Ac und]
+27.0 +25.6 92 +40 +42 очень
душно
1008.6 1006.9
06 15.07 ЮЗ 2 7000 м 10/6 300 м
[Cu Sc Ac und]
+29.0 +25.9 83 +43 +46 опасность
перегрева
1006.4 1004.7
09 15.07 ЮЗ 2 7000 м {морось} 8/5 300 м
[Cu Sc Ac und]
+28.0 +25.0 84 +40 +43 очень
душно
1005.6 1003.9
12 15.07 ЮЗ 2 7000 м 10/6 300 м
[Sc Ac trans]
+27.0 +25.6 92 +40 +40 очень
душно
1005.4 1003.7 +29.2 0.0
15 15.07 ЮЗ 3 5000 м 8/4 300 м
[Sc Ac trans]
+26.0 +24.6 92 +37 +37 очень
душно
1006.4 1004.7
00 16.07 ЮЗ 2 6000 м 10/5 300 м
[Sc Ac und]
+25.0 +24.2 95 +34 +35 очень
душно
1005.7 1004.0 +24.0
03 16.07 ЮЗ 2 7000 м 9/5 300 м
[Cu Sc Ac und]
+26.5 +25.1 92 +38 +41 очень
душно
1007.7 1006.0
06 16.07 ЮЗ 1 7000 м 10/8 600 м
[Cb calv]
+29.5 +25.6 80 +44 +46 опасность
перегрева
1007.4 1005.7
09 16.07 ЮЗ 1 7000 м {морось} 10/8 300 м
[Cb calv Ac trans]
+28.0 +26.0 89 +42 +43 опасность
перегрева
1006.3 1004.6
12 16.07 З 1 6000 м слаб. дождь 10/6 600 м
[Cb cap Ac As]
+25.0 +25.0 100 +36 +36 очень
душно
1005.7 1004.0 +30.5 6
15 16.07 ЮВ 1 5000 м в посл. час дождь 10/6 300 м
[Cb cap Ac As]
+25.0 +25.0 100 +36 +36 очень
душно
1005.8 1004.1
00 17.07 ЮВ 1 6000 м 10/6 300 м
[Cb calv]
+25.0 +25.0 100 +36 +36 очень
душно
1004.2 1002.5 +24.0 3
03 17.07 ЮВ 1 7000 м 8/8 300 м
[Cb calv]
+27.0 +25.6 92 +40 +43 очень
душно
1005.4 1003.7
06 17.07 ЮЗ 2 6000 м в посл. час дождь 10/6 300 м
[Cb calv Ac und]
+28.0 +26.8 93 +44 +46 опасность
перегрева
1005.5 1003.8
09 17.07 ЮВ 2 6000 м слаб. дождь {гроза} 10/6 300 м
[Cb cap Ac As]
+26.0 +26.0 100 +39 +40 очень
душно
1005.0 1003.3
12 17.07 ЮЗ 2 5000 м слаб. морось {гроза, дождь} 10/6 300 м
[Frnb Ac As]
+25.0 +25.0 100 +36 +36 очень
душно
1004.7 1003.0 +29.0 40
15 17.07 СВ 1 4000 м в посл. час дождь {морось} 10/6 300 м
[Frnb Ac As]
+25.0 +25.0 100 +36 +36 очень
душно
1005.5 1003.8
00 18.07 ЮВ 1 4000 м дымка 10/5 300 м
[Sc Ac und]
+24.5 +24.5 100 +34 +34 очень
душно
1004.7 1003.0 +23.0 4
03 18.07 Ю 2 7000 м 8/5 300 м
[Cu Sc Ac trans Ci fib]
+29.0 +25.9 83 +43 +48 опасность
перегрева
1006.0 1004.3
06 18.07 ЮЗ 3 7000 м 8/8 300 м
[Cu Sc]
+31.5 +26.6 75 +48 +52 опасность
перегрева
1006.1 1004.4
09 18.07 ЮЗ 3 7000 м 8/6 300 м
[Cb calv Ac trans]
+32.5 +25.3 66 +47 +49 опасность
перегрева
1004.0 1002.3
12 18.07 Ю 1 7000 м 8/5 300 м
[Cu Sc Ac trans]
+28.0 +25.9 88 +42 +42 опасность
перегрева
1003.9 1002.2 +32.8
15 18.07 ЮЗ 2 5000 м 5/5 300 м
[Sc]
+27.0 +25.6 92 +40 +40 очень
душно
1006.7 1005.0
00 19.07 ЮЗ 1 6000 м 6/4 300 м
[Sc Ac trans]
+26.0 +24.6 92 +37 +37 очень
душно
1006.1 1004.4 +24.5
03 19.07 ЮЗ 2 7000 м 5/5 300 м
[Cb calv]
+30.0 +26.0 79 +45 +52 опасность
перегрева
1007.6 1005.9
06 19.07 ЮЗ 2 8000 м 6/5 600 м
[Cb calv Ci sp]
+33.0 +22.4 54 +42 +53 опасность
перегрева
1007.1 1005.4
09 19.07 ЮВ 2 7000 м гроза без осадков 9/8 300 м
[Cb cap Ac lent]
+30.5 +26.6 80 +47 +48 опасность
перегрева
1004.9 1003.2
12 19.07 З 1 6000 м {гроза} 8/6 600 м
[Cb calv As op]
+27.5 +25.3 88 +40 +40 очень
душно
1005.2 1003.5 +33.7
15 19.07 ЮЗ 1 5000 м 1/0
[Ci fib]
+26.5 +25.1 92 +38 +38 очень
душно
1009.1 1007.4
00 20.07 В 2 6000 м 8/3 600 м
[Sc Ac und Ci sp]
+25.5 +24.8 96 +36 +37 очень
душно
1007.0 1005.3 +24.4
03 20.07 ЮЗ 1 7000 м 8/5 600 м
[Cb calv Ac trans Ci sp]
+29.5 +26.2 82 +45 +50 опасность
перегрева
1008.0 1006.3
06 20.07 ЮЗ 1 7000 м 8/6 600 м
[Cu Sc Ac trans]
+31.5 +24.2 65 +43 +51 опасность
перегрева
1009.0 1007.3
09 20.07 ЮЗ 1 7000 м 6/6 600 м
[Cu Sc]
+33.0 +24.4 61 +46 +50 опасность
перегрева
1006.2 1004.5
12 20.07 ЮВ 1 7000 м 8/8 600 м
[Cu Sc]
+30.5 +26.0 77 +46 +46 опасность
перегрева
1005.9 1004.2 +34.0
15 20.07 ЮЗ 2 5000 м 4/1 600 м
[Sc Ac und]
+28.0 +25.9 88 +42 +42 опасность
перегрева
1008.6 1006.9

 

Местоположение метеостанции Янгон (Мьянма): широта 16.77 долгота 96.17 высота над уровнем моря 15 м.

В архиве по умолчанию представлена погода у Янгоне за последнюю неделю. Архивные данные за месяц целиком и за предыдущие месяцы, начиная с января 2011 года, Вы можете получить, выбрав интересующий диапазон дат из раскрывающегося списка и нажав кнопку "Ввод!".


*Определитесь, кто Вы:
робот инопланетянин человек

Внимание! Время в таблицах - всемирное. Для получения местного времени необходимо прибавить поправку, которая равна 6.5 ч.

Смотрите также архив погоды в соседних городах и на ближайших метеорологических станциях:

Погода в Мингаладоне (Мьянма) (14 км)
Погода в Хмавби (Мьянма) (41 км)
Погода в Маубине (Мьянма) (56 км)
Погода в Пегу (Мьянма) (71 км)
Погода в Пхьяпоуне (Мьянма) (77 км)
Погода в Хинтаде (Мьянма) (128 км)
Погода в Бассейне (Мьянма) (149 км)
Погода в Моламьяйне (Мьянма) (157 км)
Погода в Пхаане (Мьянма) (160 км)
Погода в Гва (Мьянма) (191 км)

Пояснения к столбцам:

Ветер - указаны скорость ветра в м/с - средняя за 10 мин, порывы в срок и между сроками (в фигурных скобках) и направление, откуда дует ветер: С - северный, СВ - северо-восточный, В - восточный, ЮВ - юго-восточный, Ю - южный, ЮЗ - юго-западный, З - западный, СЗ - северо-западный.
Видимость - горизонтальная дальность видимости в метрах или километрах. При видимости от 1 до 10 км при отсутствии осадков обычно наблюдается дымка, при ухудшении видимости до 1 км и менее - туман. В сухую погоду видимость может ухудшаться дымом, пылью или мглою.
Явления - указаны атмосферные явления, наблюдавшиеся в срок или в последний час перед сроком; фигурными скобками обозначены явления, наблюдавшиеся между сроками (за 1-3 часа до срока); квадратными скобками обозначены град или гололедные отложения с указанием их диаметра в мм.
Облачность - указаны через наклонную черту общая и нижняя облачность в баллах и высота нижней границы облаков в метрах; квадратными скобками обозначены формы облаков: Ci - перистые, Cs - перисто-слоистые, Cc - перисто-кучевые, Ac - высококучевые, As - высокослоистые, Sc - слоисто-кучевые, Ns - слоисто-дождевые, Cu - кучевые, Cb - кучево-дождевые. Подробнее классификацию облаков см. в Атласе облаков (PDF).
T - Температура воздуха - температура, измеренная на высоте 2 м над землей.
Td - Температура точки росы - температура, при понижении до которой содержащийся в воздухе водяной пар достигнет насыщения.
f - Относительная влажность воздуха - влажноcть воздуха, измеренная на высоте 2 м над землей.
Te - Эффективная температура - температура, которую ощущает одетый по сезону человек в тени. Характеристика душности погоды. При расчете учитывается влияние влажности воздуха и скорости ветра на теплоощущения человека.
Tes - Эффективная температура на солнце - температура, которую ощущает человек, с поправкой на солнечный нагрев. Характеристика знойности погоды. Зависит от высоты солнца над горизонтом, облачности и скорости ветра. Ночью, в пасмурную погоду, а также при ветре 12 м/с и более поправка равна нулю.
P - Атмосферное давление - приведенное к уровню моря атмосферное давление.
Po - Атмосферное давление - измеренное на уровне метеостанции атмосферное давление.
Tmin - Минимальная температура - минимум температуры воздуха на высоте 2 м над землей.
Tmax - Максимальная температура - максимум температуры воздуха на высоте 2 м над землей.
R - Количество осадков - Количество выпавших осадков за период времени, мм. При наведении курсора мыши на число - период времени, за который выпало указанное количество осадков.
R24 - Количество осадков - Количество выпавших осадков за 24 часа, мм.
S - Снежный покров - Высота снежного покрова, см. При наведении курсора мыши на число - состояние снежного покрова и степень покрытия местности в баллах.